Retour au catalogue

NOAA 16 DEB

ActifPO
NORAD 41060·DEBRIS·🇺🇸 United States

Lancé Sep 21, 2000 depuis Vandenberg Space Force Base

Loading…

Prochains Passages (prochaines 24 heures)

TLE

FraisSource: Space-Track

Époque: Sep 14, 2026, 04:37 UTC

1 41060U 00055T   26257.19282656  .00001099  00000-0  35359-3 0  9999
2 41060  98.9477 158.6567 0076731 166.6151 193.7096 14.39790932564608

Suivez NOAA 16 DEB en temps réel avec AllMySat

Download on the App Store